This demonstration page uses our WeatherBlox Daily Observations layout. Learn more.

Left ArrowRight Arrow

Hourly Observations for January 31, 2015

Temp ( °F °C ) Dew Point ( °F °C ) Humidity (%) Winds ( mph kmh ) Pressure ( in mb ) Visibility ( mi km ) Precip ( " mm )
12:16 am 00:16 Clear 19 -7 16 -9 86 86 Calm 30.48 1032 10 16.0934 N/A
12:35 am 00:35 Clear 19 -7 16 -9 86 86 Calm 30.48 1032 10 16.0934 N/A
12:55 am 00:55 Clear 19 -7 16 -9 86 86 SSE 3 6 30.48 1032 10 16.0934 N/A
1:16 am 01:16 Clear 19 -7 16 -9 86 86 S 3 6 30.45 1031 10 16.0934 N/A
1:35 am 01:35 Clear 19 -7 14 -10 79 79 Calm 30.45 1031 10 16.0934 N/A
1:55 am 01:55 Clear 19 -7 14 -10 79 79 Calm 30.45 1031 10 16.0934 N/A
2:16 am 02:16 Clear 19 -7 14 -10 79 79 S 3 6 30.45 1031 10 16.0934 N/A
2:35 am 02:35 Clear 19 -7 14 -10 79 79 S 5 7 30.45 1031 10 16.0934 N/A
2:55 am 02:55 Clear 19 -7 14 -10 79 79 S 6 9 30.45 1031 10 16.0934 N/A
3:16 am 03:16 Clear 19 -7 12 -11 73 73 S 6 9 30.45 1031 10 16.0934 N/A
3:35 am 03:35 Clear 19 -7 12 -11 73 73 S 5 7 30.45 1031 10 16.0934 N/A
3:55 am 03:55 Clear 19 -7 12 -11 73 73 S 6 9 30.42 1030 10 16.0934 N/A
4:15 am 04:15 Clear 19 -7 12 -11 73 73 S 6 9 30.42 1030 10 16.0934 N/A
4:35 am 04:35 Clear 19 -7 12 -11 73 73 S 6 9 30.39 1029 10 16.0934 N/A
4:56 am 04:56 Clear 19 -7 12 -11 73 73 S 6 9 30.39 1029 10 16.0934 N/A
5:15 am 05:15 Clear 19 -7 12 -11 73 73 S 6 9 30.39 1029 10 16.0934 N/A
5:35 am 05:35 Clear 19 -7 12 -11 73 73 S 6 9 30.39 1029 10 16.0934 N/A
5:56 am 05:56 Clear 19 -7 12 -11 73 73 S 5 7 30.39 1029 10 16.0934 N/A
6:15 am 06:15 Clear 21 -6 12 -11 68 68 S 6 9 30.39 1029 10 16.0934 N/A
6:35 am 06:35 Clear 19 -7 12 -11 73 73 S 5 7 30.39 1029 10 16.0934 N/A
6:56 am 06:56 Clear 19 -7 12 -11 73 73 S 5 7 30.39 1029 10 16.0934 N/A
7:15 am 07:15 Clear 19 -7 12 -11 73 73 S 6 9 30.39 1029 10 16.0934 N/A
7:35 am 07:35 Clear 19 -7 12 -11 73 73 S 5 7 30.39 1029 10 16.0934 N/A
7:55 am 07:55 Sunny 19 -7 12 -11 73 73 S 6 9 30.39 1029 10 16.0934 N/A
8:15 am 08:15 Sunny 21 -6 12 -11 68 68 S 5 7 30.39 1029 10 16.0934 N/A
8:36 am 08:36 Sunny 21 -6 12 -11 68 68 S 5 7 30.39 1029 10 16.0934 N/A
8:55 am 08:55 Sunny 23 -5 14 -10 68 68 S 7 11 30.39 1029 10 16.0934 N/A
9:15 am 09:15 Sunny 25 -4 14 -10 63 63 S 6 9 30.39 1029 10 16.0934 N/A
9:36 am 09:36 Sunny 25 -4 14 -10 63 63 SSW 6 9 30.39 1029 10 16.0934 N/A
9:55 am 09:55 Sunny 27 -3 14 -10 59 59 SSW 7 11 30.39 1029 10 16.0934 N/A
10:15 am 10:15 Sunny 28 -2 16 -9 59 59 SSW 9 15 30.36 1028 10 16.0934 N/A
10:36 am 10:36 Sunny 30 -1 14 -10 51 51 SW 9 15 30.36 1028 10 16.0934 N/A
10:55 am 10:55 Sunny 32 0 16 -9 51 51 SW 10 17 30.36 1028 10 16.0934 N/A
11:15 am 11:15 Sunny 32 0 14 -10 47 47 SSW 12 19 30.36 1028 10 16.0934 N/A
11:36 am 11:36 Sunny 34 1 14 -10 44 44 SW 12 19 30.36 1028 10 16.0934 N/A
11:55 am 11:55 Sunny 36 2 14 -10 41 41 SW 14 22 30.36 1028 10 16.0934 N/A
12:15 pm 12:15 Sunny 36 2 14 -10 41 41 WSW 12 19 30.33 1027 10 16.0934 N/A
12:36 pm 12:36 Sunny 36 2 12 -11 38 38 SW 12 19 30.33 1027 10 16.0934 N/A
12:55 pm 12:55 Sunny 36 2 12 -11 38 38 SW 13 20 30.33 1027 10 16.0934 N/A
1:15 pm 13:15 Sunny 36 2 12 -11 38 38 SW 10 17 30.33 1027 10 16.0934 N/A
1:35 pm 13:35 Sunny 36 2 14 -10 41 41 WSW 9 15 30.3 1026 10 16.0934 N/A
1:55 pm 13:55 Sunny 37 3 14 -10 38 38 WSW 13 20 30.3 1026 10 16.0934 N/A
2:16 pm 14:16 Sunny 37 3 14 -10 38 38 SW 10 17 30.3 1026 10 16.0934 N/A
2:35 pm 14:35 Sunny 37 3 14 -10 38 38 SW 8 13 30.3 1026 10 16.0934 N/A
2:55 pm 14:55 Sunny 37 3 14 -10 38 38 SW 13 20 30.3 1026 10 16.0934 N/A
3:16 pm 15:16 Sunny 37 3 14 -10 38 38 SW 9 15 30.27 1025 10 16.0934 N/A
3:35 pm 15:35 Sunny 37 3 14 -10 38 38 SW 12 19 30.27 1025 10 16.0934 N/A
3:56 pm 15:56 Mostly Cloudy 37 3 14 -10 38 38 SW 10 17 30.27 1025 10 16.0934 N/A
4:15 pm 16:15 Cloudy 37 3 14 -10 38 38 SW 8 13 30.27 1025 10 16.0934 N/A
4:35 pm 16:35 Cloudy 37 3 14 -10 38 38 SW 7 11 30.27 1025 10 16.0934 N/A
4:56 pm 16:56 Cloudy 37 3 14 -10 38 38 SSW 8 13 30.27 1025 10 16.0934 N/A
5:15 pm 17:15 Cloudy 37 3 14 -10 38 38 SSW 7 11 30.27 1025 10 16.0934 N/A
5:35 pm 17:35 Cloudy 37 3 16 -9 41 41 SSW 8 13 30.27 1025 10 16.0934 N/A
5:56 pm 17:56 Mostly Cloudy 36 2 16 -9 44 44 S 8 13 30.27 1025 10 16.0934 N/A
6:15 pm 18:15 Mostly Cloudy 36 2 18 -8 48 48 SSW 7 11 30.27 1025 10 16.0934 N/A
6:35 pm 18:35 Cloudy 36 2 18 -8 48 48 SSW 7 11 30.27 1025 10 16.0934 N/A
6:56 pm 18:56 Cloudy 36 2 18 -8 48 48 SSW 6 9 30.27 1025 10 16.0934 N/A
7:15 pm 19:15 Cloudy 36 2 18 -8 48 48 SSW 5 7 30.27 1025 10 16.0934 N/A
7:35 pm 19:35 Partly Cloudy 36 2 18 -8 48 48 SW 14 22 30.27 1025 10 16.0934 N/A
7:56 pm 19:56 Mostly Cloudy 34 1 25 -4 70 70 SW 7 11 30.27 1025 7 11.26538 N/A
8:15 pm 20:15 Cloudy 34 1 27 -3 75 75 SW 10 17 30.27 1025 3 4.82802 N/A
8:35 pm 20:35 Cloudy 32 0 32 0 100 100 SW 10 17 30.27 1025 1.75 2.816345 N/A
8:56 pm 20:56 Cloudy 32 0 32 0 100 100 SW 9 15 30.27 1025 1.75 2.816345 N/A
9:15 pm 21:15 Cloudy 32 0 N/A N/A SW 8 13 30.27 1025 1.75 2.816345 N/A
9:35 pm 21:35 Cloudy 32 0 N/A N/A SW 6 9 30.27 1025 2 3.21868 N/A
9:56 pm 21:56 Cloudy 32 0 N/A N/A SSW 5 7 30.24 1024 2.5 4.02335 N/A
10:15 pm 22:15 Cloudy 32 0 N/A N/A SSW 3 6 30.24 1024 2.5 4.02335 N/A
10:35 pm 22:35 Cloudy 32 0 N/A N/A SSW 3 6 30.24 1024 2 3.21868 N/A
10:56 pm 22:56 Cloudy 32 0 N/A N/A S 3 6 30.24 1024 2 3.21868 N/A
11:15 pm 23:15 Cloudy 32 0 N/A N/A S 3 6 30.24 1024 2.5 4.02335 N/A
11:35 pm 23:35 Cloudy 32 0 N/A N/A SSW 5 7 30.24 1024 3 4.82802 N/A
11:56 pm 23:56 Cloudy 32 0 N/A N/A Calm 30.24 1024 2.5 4.02335 N/A

Powered by AerisWeather